CST,Max TemperatureF,Mean TemperatureF,Min TemperatureF,Max Dew PointF,MeanDew PointF,Min DewpointF,Max Humidity, Mean Humidity, Min Humidity, Max Sea Level PressureIn, Mean Sea Level PressureIn, Min Sea Level PressureIn, Max VisibilityMiles, Mean VisibilityMiles, Min VisibilityMiles, Max Wind SpeedMPH, Mean Wind SpeedMPH, Max Gust SpeedMPH,PrecipitationIn, CloudCover, Events, WindDirDegrees
2011-11-1,73,57,40,45,40,37,92,61,29,30.25,30.19,30.13,10,10,10,14,4,17,0.00,0,,129
2011-11-2,75,59,43,56,49,41,100,73,46,30.20,30.09,29.93,10,10,10,23,9,31,T,0,,145
2011-11-3,67,55,43,61,42,35,93,70,47,30.16,30.07,29.91,10,10,3,23,13,32,0.11,6,Rain,283
2011-11-4,55,49,42,47,42,35,83,75,66,30.25,30.20,30.16,10,10,10,14,7,18,0.00,7,,8
2011-11-5,65,56,47,50,47,46,100,78,56,30.21,30.15,30.04,10,8,2,14,6,18,0.00,4,,102
2011-11-6,66,58,49,55,51,46,93,78,63,30.19,30.14,30.09,10,10,10,14,8,18,0.00,6,,133
2011-11-7,78,66,53,61,56,52,93,72,50,30.22,30.13,30.05,10,10,10,15,8,20,0.00,4,,137
2011-11-8,79,71,62,67,62,55,93,75,56,30.05,29.95,29.84,10,9,2,28,16,38,0.42,6,Rain-Thunderstorm,186
2011-11-9,64,53,42,57,42,34,89,66,42,30.30,30.15,29.96,10,10,10,21,10,30,0.00,1,,308
2011-11-10,61,49,37,34,28,19,82,51,20,30.38,30.30,30.23,10,10,10,18,6,23,0.00,0,,305
2011-11-11,69,53,36,34,30,26,76,48,20,30.23,30.15,30.08,10,10,10,20,7,23,0.00,0,,209
2011-11-12,68,56,43,53,45,33,77,65,52,30.11,30.02,29.92,10,10,10,23,13,29,0.00,0,,185
2011-11-13,78,70,61,62,59,53,84,70,56,29.94,29.87,29.80,10,10,10,30,17,39,0.00,3,,188
2011-11-14,80,75,69,65,64,61,84,71,58,29.88,29.84,29.78,10,10,10,23,14,32,0.00,5,,195
2011-11-15,74,68,61,65,62,59,93,83,73,29.83,29.79,29.75,10,10,5,20,8,25,0.05,7,Rain,210
2011-11-16,63,55,47,63,49,29,100,73,46,30.26,29.92,29.74,10,8,2,23,13,35,0.93,8,Rain,17
2011-11-17,53,43,33,32,27,22,89,60,30,30.45,30.38,30.27,10,10,6,14,6,22,0.00,0,,359
2011-11-18,60,45,30,37,30,26,92,60,27,30.36,30.23,30.09,10,10,8,15,6,22,0.00,0,,147
2011-11-19,71,57,43,60,51,34,86,73,60,30.08,30.04,29.97,10,10,10,20,10,26,0.00,6,,160
2011-11-20,74,70,65,68,65,60,100,88,76,30.14,30.09,30.03,10,9,4,18,10,23,0.02,6,,179
2011-11-21,71,68,64,66,65,63,100,94,87,30.18,30.10,29.93,10,7,1,23,9,30,2.03,7,Rain-Thunderstorm,126
2011-11-22,69,60,51,65,61,48,93,83,72,30.15,29.92,29.80,10,8,1,29,10,37,1.50,6,Rain-Thunderstorm,233
2011-11-23,53,50,47,47,47,46,93,85,77,30.34,30.27,30.16,10,10,10,14,5,18,0.00,7,,7
2011-11-24,51,47,42,46,44,41,96,87,77,30.40,30.32,30.25,10,7,0,10,2,13,0.00,6,Fog,127
2011-11-25,67,53,39,53,44,39,100,74,48,30.25,30.17,30.02,10,5,0,16,6,20,0.00,1,Fog,154
2011-11-26,68,59,49,63,57,48,100,91,81,30.02,29.93,29.86,10,8,2,21,9,28,0.84,8,Rain,182
2011-11-27,49,45,41,45,37,31,100,84,67,30.14,30.08,29.98,10,10,5,23,13,29,0.02,8,Rain,337
2011-11-28,43,40,37,32,31,30,82,72,62,30.10,30.02,29.89,10,10,10,18,10,24,T,7,Rain,318
2011-11-29,57,48,39,34,28,21,73,49,24,30.20,30.03,29.88,10,10,10,21,10,26,0.00,2,,308
2011-11-30,51,41,31,31,26,19,89,60,31,30.27,30.21,30.17,10,10,5,10,3,14,0.00,0,,345